Home > Weather > Mesa > Past weeks

Flag for U.S.A. Weather for the Past 2 Weeks in Mesa, Arizona, U.S.A.

Now
54 °F

Clear.


Feels Like: 50 °F
Forecast: 39 / 70 °F
Wind: 10 mph from Northeast

Location: Williams Gateway Airport

Current Time: Feb 5, 2016 at 8:57:33 PM

Latest Report: Feb 5, 2016 at 7:47 PM


Visibility: 25 mi

Pressure: 30.29 "Hg

Humidity: 24%

Dew point: 18 °F

Location of MesaLocation

Historic Weather in Mesa — Graph

°F

Mesa Temperature Yesterday

Maximum temperature yesterday: 61 °F (at 3:47 PM)
Minimum temperature yesterday: 28 °F (at 4:47 AM)
Average temperature yesterday: 41 °F

High & Low Weather Summary for the Past Weeks

 TemperatureHumidityPressure
High73 °F (Jan 30, 2:47 PM)94% (Jan 31, 11:55 PM)30.39 "Hg (Jan 31, 11:55 PM)
Low28 °F (Feb 3, 6:47 AM)11% (Jan 26, 3:47 PM)29.61 "Hg (Jan 31, 9:50 PM)
Average48 °F49%30.10 "Hg
* Reported Jan 21 5:47 PM — Feb 5 5:48 PM, Mesa, Weather by CustomWeather, © 2016

Note: Actual official high and low records may vary slightly from our data, if they occured in-between our weather recording intervals... More about our weather records

Advertising

Mesa Weather History for the Previous 24 Hours

 ConditionsComfort  
Time TempWeatherWind HumidityBarometerVisibility
5:48 PM
Fri, Feb 5
63 °FPassing clouds.9 mph15%30.27 "Hg45 mi
4:48 PM64 °FPassing clouds.10 mph28%30.28 "Hg45 mi
3:47 PM66 °FPassing clouds.15 mph13%30.29 "Hg45 mi
2:48 PM64 °FPassing clouds.10 mph14%30.30 "Hg45 mi
1:47 PM64 °FPassing clouds.17 mph15%30.31 "Hg45 mi
12:47 PM63 °FPassing clouds.7 mph17%30.34 "Hg45 mi
11:50 AM61 °FPassing clouds.8 mph19%30.36 "Hg45 mi
10:47 AM55 °FPassing clouds.No wind26%30.37 "Hg45 mi
9:47 AM54 °FPassing clouds.3 mph26%30.36 "Hg45 mi
8:57 AM43 °FPassing clouds.No wind57%30.34 "Hg45 mi
7:48 AM36 °FPassing clouds.3 mph65%30.32 "Hg20 mi
6:47 AM37 °FClear.5 mph52%30.31 "Hg20 mi
5:47 AM34 °FClear.7 mph70%30.29 "Hg20 mi
4:47 AM39 °FClear.No wind48%30.28 "Hg20 mi
4:15 AM34 °FClear.3 mph65%30.28 "Hg10 mi
3:55 AM37 °FClear.No wind56%30.28 "Hg10 mi
3:35 AM36 °FClear.No wind65%30.28 "Hg10 mi
3:15 AM36 °FClear.No wind60%30.27 "Hg10 mi
2:55 AM36 °FClear.3 mph65%30.26 "Hg10 mi
2:35 AM41 °FClear.No wind49%30.26 "Hg10 mi
2:15 AM37 °FClear.No wind56%30.26 "Hg10 mi
1:55 AM39 °FClear.No wind52%30.26 "Hg10 mi
1:35 AM37 °FClear.3 mph60%30.26 "Hg10 mi
1:15 AM37 °FClear.No wind60%30.26 "Hg10 mi
12:55 AM41 °FClear.No wind49%30.26 "Hg10 mi
12:35 AM41 °FClear.No wind49%30.26 "Hg10 mi
12:15 AM43 °FClear.No wind42%30.26 "Hg10 mi
9:47 PM
Thu, Feb 4
48 °FClear.6 mph27%30.25 "Hg20 mi
8:47 PM48 °FClear.9 mph29%30.23 "Hg25 mi
Weather by CustomWeather, © 2016

See weather overviewHow to use our weather pages